Погода в Гари

Погода в Гари : погода сейчас, прогноз погоды и архив. Всё, что Вы хотите узнать о погоде в Гари!

Поиск расширенной информации на нашем сайте:

Другие новости

Новости СМИ2

Главная страница сайта

Новости сайта

03.07.2017

Напоминаем, что на нашем специализированном сайте Метеоцентр.Азия вы можете получить высокодетализированные автоматические прогнозы погоды по пунктам России, СНГ и мира в авиационном формате (включающие направление и скорость ветра, видимость, явления погоды, количество и форму облачности, нижнюю и верхнюю границу облачности).


Погода в Гари - сегодня

Время (UTC), дата Ветер
(°,м/с) 
Видим.   Явления Облачность Т
(°С)
Тd
(°С)
f(%) Тe
(°С)
Pmin
(гПа)
dP
(гПа)
Po
(мм)
O2
(г/м3)
Тmin Tmax R s Состояние
почвы
03 22.07.17 130 (ЮВ) 20000 м    8/0 верхняя 
[Ci sp]
+20 +15.3 74 +29  1012.5  0.1  748  278  +18.7        сухая 
06 22.07.17 110 (В) 20000 м    6/0 верхняя 
[Ci fib]
+25 +14 50 +32  1011.8  -0.5  748  273           
09 22.07.17 140 (ЮВ) 20000 м    6/3 600 м верхняя 
[Cu med, cong|Ci fib]
+25.8 +14 48 +33  1010.2  -1.5  746  272           
12 22.07.17 310 (СЗ) 20000 м  гроза без осадков  8/4 600 м кучево-дожд., средняя 
[Cb calv|Ac und]
+24.1 +14.5 55 +32  1009.1  -1.2  746  273           
21 22.07.17 090 (В) 10 км  {гроза, ливн. осадки}  6/3 600 м кучево-дожд., средняя 
[Cb calv|Ac und]
+15.4 +14.7 96 +24  1008.4  -1.2  745  281           
00 23.07.17 140 (ЮВ) 20000 м  {гроза, ливн. осадки}  8/8 600 м кучево-дожд. 
[Cb calv]
+14.8 +14.4 97 +23  1008  -0.6  744  282           
03 23.07.17 050 (СВ) 20000 м    8/8 600 м 
[Sc]
+16.4 +15.4 94 +27  1008  0.1  744  280  +14.8    12    мокрая 
06 23.07.17 060 (СВ) 10 км  слаб. ливневой дождь  10/10 600 м кучево-дожд. 
[Cb cap]
+16.6 +13 79 +23  1008  0.1  745  280           
09 23.07.17 250 (З) 20000 м  {ливн. осадки}  9/9 600 м кучево-дожд. 
[Cb calv]
+18.4 +15.3 82 +29  1008.3  0.4  745  278           
12 23.07.17 330 (СЗ) 20000 м  {ливн. осадки}  9/9 600 м кучево-дожд. 
[Cb calv]
+20.1 +14.8 72 +29  1007.8  -0.5  744  276           
18 23.07.17 320 (СЗ) 10 км    6/6 600 м кучево-дожд. 
[Cb calv]
+18 +13.4 74 +25  1007.9  -0.5  744  279           
21 23.07.17 340 (С) 10 км    6/3 600 м кучево-дожд., средняя 
[Cb calv|Ac trans]
+16.5 +12.5 77 +22  1007.5  -0.3  744  280           
00 24.07.17 340 (С) 20000 м    8/3 600 м средняя 
[Sc|Ac trans]
+15.9 +12.3 79 +21  1007.1  -0.4  744  281           
03 24.07.17 330 (СЗ) 20000 м    6/0 средняя 
[Ac trans]
+17.1 +13.4 79 +24  1006.7  -0.4  744  279  +15.7        влажная 
06 24.07.17 300 (СЗ) 20000 м    4/0 средняя 
[Ac trans]
+21.6 +16.2 71 +33  1005.6  -0.8  743  274           
09 24.07.17 320 (СЗ) 20000 м    6/6 600 м кучево-дожд. 
[Cb calv]
+23.7 +15.5 60 +34  1005  -0.5  743  272           
12 24.07.17 130 (ЮВ) 20000 м  {ливн. осадки}  6/6 600 м кучево-дожд. 
[Cb calv]
+23.5 +17.2 68 +37  1004.7  -0.3  742  272           
18 24.07.17 140 (ЮВ) 10 км    8/8 600 м кучево-дожд. 
[Cb calv]
+20.8 +14.7 68 +29  1004.5  -0.2  742  275           
21 24.07.17 220 (ЮЗ) 10 км    8/8 600 м средняя 
[Sc|Ac trans]
+19.6 +15 75 +30  1004.4  -0.1  742  276           
00 25.07.17 210 (ЮЗ) 20000 м    8/0 средняя 
[Ac und]
+17.2 +15.3 89 +28  1004.2  -0.3  742  278           
03 25.07.17 220 (ЮЗ) 20000 м    8/8 600 м 
[Sc]
+18 +16.7 92 +31  1004.1  -0.1  742  277  +17.2        влажная 
06 25.07.17 200 (Ю) 10 км  слаб. ливневой дождь  10/5 600 м кучево-дожд., средняя 
[Cb cap|As trans]
+18.4 +16.7 90 +32  1003.8  -0.3  741  276           
09 25.07.17 350 (С) 20000 м  {ливн. осадки}  10/6 600 м кучево-дожд., средняя 
[Cb calv|Ac As]
+21 +16.6 76 +33  1002.5  -1.1  741  273           
12 25.07.17 090 (В) 10 км  гроза, ливневой дождь  10/10 600 м кучево-дожд. 
[Cb cap]
+19.6 +17 85 +33  1002.1  -0.4  740  275           
18 25.07.17 170 (Ю) 10 км  слаб. ливневой дождь{гроза}  10/10 300 м кучево-дожд. 
[Cb cap]
+16.9 +16.7 99 +30  1001.1  -0.6  740  277           
Время (UTC), дата Ветер
(°,м/с) 
Видим.   Явления Облачность Т
(°С)
Тd
(°С)
f(%) Тe
(°С)
Pmin
(гПа)
dP
(гПа)
Po
(мм)
O2
(г/м3)
Тmin Tmax R s Состояние
почвы

Для получения пояснительной информации подведите курсор к названию столбца.

ПОГОДА в Гари - архив

Всё, что Вы хотите узнать о погоде в Гари - удобно и подробно!

Выберите нужную дату (начиная с 1 января 2015* года) и нажмите кнопку "Найти".
Будут отображены архивные сводки погоды по пункту Гари, начиная с указанной даты.


Отображать данные в формате CSV (для использования в таблицах Excel)


Внимание! Наш архив погоды предназначен исключительно для личного некоммерческого использования в познавательных целях. Если Вам необходимы официальные справки о состоянии погоды (для производственных, юридических, коммерческих и т.п. целей), обращайтесь в органы Росгидромета.

*Примечание: данная дата относится к архиву по метеостанциям СССР (Россия, СНГ, Балтия).
Архив по метеостанциям Зарубежной Европы и Азии (кроме Китая) хранится 10 дней, по другим регионам земного шара (Китай, Африка, Америка, Австралия, Океания) - 1 день.

Гари - район местоположения метеостанции


Название, широта, долгота, высота метеостанции:
Гари 59.4°ш. 62.3°д. 131 м над ур. моря [Российская Федерация]

Дополнительная информация

В oтличие oт бoльшинства пoгoдных сайтoв мы публикуем пoдрoбную метеoинфoрмацию в детальнoм прoфессиoнальнoм фoрмате.

Характеристики температуры и влажнoсти вoздуха измеряются на высoте 2 м в тени вдали oт зданий и деревьев.
Скoрoсть ветра измеряется на высoте 10 м (на урoвне рoста челoвека скoрoсть ветра ниже в 1.5-2 раза). Если метеoстанция нахoдится в гoрoде или в лесу, тo скoрoсть ветра занижена на 2-4 м/с пo сравнению с oткрытым местoм. Скoрoсть ветра над акватoриями крупных рек и oзёр, а также на вершинах хoлмoв на 2-5 м/с выше, чем в oбычных услoвиях.
Атмoсфернoе давление в разных тoчках местнoсти мoжет значительнo oтличаться oт давления на метеoстанции, в зависимoсти oт услoвий рельефа (при пoдъёме на 10 м давление пoнижается примернo на 1 мм рт.ст.).